[[{"header":{"parameterUnit":"m.s-1","parameterCategory":1,"la1":30.2991,"la2":30.254,"lo1":-89.0895,"lo2":-89.0444,"dy":0.0017,"dx":0.0017,"nx":28,"ny":28,"refTime":"2025-03-05T03:00:00:Z","depth":0,"parameterNumber":2,"parameterNumberName":"U-component_of_WINDS"},"data":[0,0,0,0,0,0,0,0,0,0,0,0,0,0,0,0,0,0,0,0,0,0,0,0,0,0,0,0,0,0,0,0,0,0,0,0,0,0,0,0,0,0,0,0,0,0,0,0,0,0,0,0,0,0,0,0,0,0,5.1876,5.1877,0,5.2013,5.2014,5.2016,5.1959,5.1955,5.1952,5.1949,5.2091,5.2097,5.2104,0,0,0,0,0,0,0,0,0,0,0,0,0,5.1567,5.1573,5.1875,5.1877,5.1879,5.2012,5.2014,5.2016,5.1959,5.1955,5.1951,5.1948,5.2089,5.2097,5.2105,0,0,0,0,0,0,0,0,0,0,0,0,0,5.1702,5.1575,5.1875,5.1867,5.1867,5.2012,5.2014,5.2017,5.196,5.1955,5.195,5.1946,5.2086,5.2096,5.2106,5.2268,0,0,5.2137,5.2142,0,0,0,0,0,0,0,0,5.1695,5.1714,5.1866,5.1867,5.1868,5.1963,5.1957,5.2101,5.1961,5.1925,5.1949,5.1943,5.2053,5.2065,5.2102,5.2274,5.2281,5.2138,5.2144,5.2149,5.2152,0,0,0,0,0,0,0,5.1685,5.1707,5.193,5.1868,5.187,5.1857,5.187,5.1984,5.2015,5.1928,5.1924,5.1941,5.2052,5.2092,5.2105,5.2283,5.2138,5.2147,5.2153,5.2157,5.2597,5.2602,0,0,0,0,0,0,5.1675,5.17,5.1925,5.1934,5.1767,5.1866,5.1882,5.1938,5.2013,5.202,5.1945,5.1938,5.2077,5.2093,5.211,5.2305,5.2149,5.2158,5.2164,5.2592,5.2598,5.2604,0,0,0,0,0,0,5.1669,5.1696,5.192,5.1816,5.1843,5.1877,5.1941,5.1943,5.1983,5.2026,5.2032,5.198,5.2074,5.2095,5.2229,5.2309,5.2163,5.2172,5.2585,5.2594,5.2601,5.2698,0,0,0,0,0,0,5.166,5.1694,5.1755,5.1818,5.1849,5.2037,5.1945,5.195,5.2001,5.1993,5.2061,5.2067,5.2072,5.2214,5.224,5.2321,5.218,5.2578,5.2589,5.2599,5.2687,5.2708,5.2726,0,0,0,0,0,5.165,5.1777,5.1759,5.1786,5.1926,5.2042,5.206,5.2062,5.2007,5.207,5.2098,5.2065,5.2297,5.2229,5.2256,5.2342,5.2573,5.2586,5.2598,5.2679,5.2704,5.2725,0,0,0,0,0,0,5.1723,5.1785,5.1765,5.1916,5.1974,5.2032,5.211,5.2088,5.2163,5.2152,5.2152,5.2168,5.2307,5.2338,5.2261,5.2504,5.2427,5.2445,5.2479,5.2503,5.2522,5.2512,5.2189,0,0,0,0,0,5.1757,5.1844,5.1894,5.2022,5.2052,5.2077,5.2127,5.2124,5.2184,5.2208,5.2246,5.2306,5.2392,5.2449,5.2531,5.2691,5.2706,5.2764,5.2784,5.2799,5.2815,5.2904,5.2931,5.2645,5.2645,5.2645,0,0,5.1827,5.1872,5.1927,5.2038,5.2083,5.2175,5.2098,5.2198,5.2266,5.2223,5.2353,5.2383,5.245,5.2599,5.2666,5.2629,5.2898,5.2815,5.2827,5.2835,5.292,5.2947,5.2971,5.2654,5.2652,5.2651,0,0,5.2003,5.2045,5.2157,5.2204,5.2272,5.2288,5.2315,5.2376,5.2395,5.2524,5.2495,5.2577,5.2725,5.2775,5.2819,5.3016,5.2989,5.3043,5.3143,5.323,5.3253,5.3273,5.3344,5.337,5.3059,5.3059,5.3059,0,5.2082,5.2219,5.2218,5.2321,5.2372,5.2337,5.2452,5.2497,5.2589,5.2625,5.2582,5.2769,5.2811,5.2972,5.302,5.3057,5.3089,5.3035,5.3249,5.327,5.3288,5.3356,5.3383,5.3065,5.3064,5.3064,5.3063,0,5.2314,5.2409,5.2492,5.2582,5.2641,5.275,5.2767,5.2828,5.282,5.284,5.2974,5.3024,5.3116,5.3154,5.3147,5.3315,5.3289,5.3248,5.3171,5.3322,5.3386,5.3412,5.3074,5.3072,5.307,5.3068,0,0,5.2539,5.2628,5.2658,5.2699,5.2773,5.2847,5.2955,5.3045,5.3098,5.3163,5.3254,5.3381,5.3344,5.3395,5.3393,5.3469,5.3624,5.3419,5.3421,5.3456,5.3814,5.3845,5.3875,5.3607,5.3612,5.3615,5.3808,0,5.2721,5.2909,5.2912,5.3086,5.3175,5.3144,5.3238,5.3294,5.3317,5.3396,5.3421,5.3512,5.3455,5.3486,5.356,5.359,5.3696,5.3576,5.3693,5.3697,5.3677,5.3908,5.3941,5.4121,5.3833,5.3837,5.3841,0,5.2958,5.3031,5.3214,5.3276,5.3313,5.3398,5.3482,5.3558,5.3621,5.3632,5.369,5.3678,5.3789,5.3708,5.3862,5.3781,5.3829,5.3851,5.3858,5.3869,5.3778,5.3927,5.4178,5.4205,5.388,5.3877,5.3874,0,5.3106,5.325,5.3378,5.3414,5.3489,5.355,5.3584,5.3643,5.3697,5.3771,5.3806,5.3892,5.3939,5.4006,5.4018,5.3958,5.4173,5.4093,5.4187,5.4187,5.4234,5.4231,5.4497,5.4264,5.4263,5.4263,5.4262,0,5.331,5.3423,5.3445,5.3524,5.365,5.3654,5.3779,5.3809,5.3861,5.3946,5.3925,5.4005,5.4015,5.4099,5.4109,5.4236,5.4257,5.427,5.4272,5.4273,5.4271,5.4305,5.4293,5.427,5.4268,5.4267,5.4266,0,5.3496,5.3515,5.3653,5.3713,5.3731,5.3822,5.3874,5.3951,5.3971,5.4079,5.4105,5.4137,5.4235,5.4253,5.4368,5.4374,5.4527,5.4515,5.4505,5.4504,5.4597,5.4589,5.4895,5.4936,5.4675,5.4677,5.468,0,5.3625,5.3711,5.3781,5.3836,5.3874,5.3963,5.4019,5.4026,5.4085,5.4165,5.4232,5.4327,5.4404,5.4561,5.4596,5.4684,5.4675,5.4776,5.4688,5.4687,5.4678,5.4673,5.4682,5.4793,5.4796,5.4798,5.48,0,5.3852,5.3858,5.3938,5.4024,5.4091,5.4158,5.4222,5.4269,5.4285,5.4353,5.4452,5.4511,5.4629,5.4724,5.4813,5.4849,5.4829,5.4828,5.4854,5.4856,5.4847,5.4855,5.4552,5.482,5.4818,5.4817,5.4816,5.4815,5.4014,5.409,5.4152,5.4243,5.4292,5.4353,5.4428,5.4458,5.4541,5.4637,5.4636,5.4746,5.4809,5.4925,5.4967,5.5054,5.5022,5.506,5.507,5.5079,5.5089,5.4833,5.507,5.5069,5.5069,5.5068,5.5068,0,5.4241,5.428,5.4364,5.4454,5.4526,5.45,5.457,5.4632,5.4729,5.4789,5.4865,5.498,5.5073,5.5115,5.5207,5.5268,5.5261,5.5292,5.5288,5.5297,5.5111,5.508,5.5296,5.5296,5.5296,5.5296,5.5296,5.5296,5.4368,5.4495,5.4509,5.4661,5.4699,5.4805,5.4848,5.4904,5.4953,5.5082,5.5159,5.5186,5.524,5.5335,5.542,5.543,5.5465,5.5501,5.5507,5.5333,5.531,5.5288,5.5258,5.5509,5.5509,5.5686,5.5687,5.5688]},{"header":{"parameterUnit":"m.s-1","parameterCategory":1,"la1":30.2991,"la2":30.254,"lo1":-89.0895,"lo2":-89.0444,"dy":0.0017,"dx":0.0017,"nx":28,"ny":28,"refTime":"2025-03-05T03:00:00:Z","depth":0,"parameterNumber":3,"parameterNumberName":"V-component_of_WINDS"},"data":[0,0,0,0,0,0,0,0,0,0,0,0,0,0,0,0,0,0,0,0,0,0,0,0,0,0,0,0,0,0,0,0,0,0,0,0,0,0,0,0,0,0,0,0,0,0,0,0,0,0,0,0,0,0,0,0,0,0,-4.9339,-4.9341,0,-4.9553,-4.9556,-4.9558,-4.9539,-4.9536,-4.9533,-4.9529,-4.9752,-4.9761,-4.977,0,0,0,0,0,0,0,0,0,0,0,0,0,-4.8916,-4.8924,-4.9338,-4.9341,-4.9344,-4.9553,-4.9556,-4.9559,-4.954,-4.9536,-4.9532,-4.9528,-4.9749,-4.976,-4.9771,0,0,0,0,0,0,0,0,0,0,0,0,0,-4.9112,-4.8927,-4.9338,-4.9359,-4.9363,-4.9552,-4.9556,-4.956,-4.9541,-4.9536,-4.9531,-4.9526,-4.9746,-4.9759,-4.9772,-4.9954,0,0,-4.9813,-4.9819,0,0,0,0,0,0,0,0,-4.9101,-4.9128,-4.9354,-4.9358,-4.9363,-4.9514,-4.9489,-4.9692,-4.9542,-4.9473,-4.9529,-4.9524,-4.9677,-4.9696,-4.9747,-4.9965,-4.9974,-4.9815,-4.9823,-4.9829,-4.9832,0,0,0,0,0,0,0,-4.9088,-4.9118,-4.9424,-4.9357,-4.9363,-4.936,-4.9382,-4.9527,-4.9601,-4.9479,-4.9478,-4.9504,-4.9679,-4.9734,-4.9752,-4.9978,-4.9814,-4.9826,-4.9835,-4.984,-5.0358,-5.0364,0,0,0,0,0,0,-4.9068,-4.9107,-4.9417,-4.943,-4.9217,-4.9371,-4.9396,-4.9471,-4.9599,-4.9614,-4.9508,-4.9502,-4.9714,-4.9737,-4.976,-4.9984,-4.9829,-4.9841,-4.9849,-5.0353,-5.036,-5.0366,0,0,0,0,0,0,-4.9059,-4.9096,-4.9408,-4.9269,-4.9308,-4.9384,-4.9468,-4.9478,-4.9533,-4.962,-4.9634,-4.9551,-4.9711,-4.9741,-4.9907,-4.9991,-4.9847,-4.986,-5.0346,-5.0355,-5.0363,-5.0432,0,0,0,0,0,0,-4.9047,-4.9093,-4.9162,-4.927,-4.9315,-4.955,-4.9473,-4.9485,-4.9556,-4.9551,-4.9664,-4.9678,-4.9709,-4.9887,-4.992,-5.0007,-4.987,-5.0339,-5.035,-5.036,-5.0422,-5.0441,-5.0458,0,0,0,0,0,-4.9032,-4.9173,-4.9166,-4.9203,-4.9403,-4.9555,-4.9581,-4.9613,-4.9563,-4.9634,-4.969,-4.9675,-4.9976,-4.9904,-4.9941,-5.0034,-5.0334,-5.0347,-5.0359,-5.0414,-5.0438,-5.0458,0,0,0,0,0,0,-4.9074,-4.9188,-4.9181,-4.936,-4.9448,-4.9551,-4.9642,-4.9636,-4.9741,-4.9731,-4.9767,-4.9793,-4.996,-5.0013,-4.993,-5.0218,-5.0149,-5.0169,-5.0178,-5.0201,-5.0218,-5.0203,-4.9881,0,0,0,0,0,-4.9103,-4.9216,-4.931,-4.9459,-4.9504,-4.9565,-4.9632,-4.9649,-4.9742,-4.9779,-4.9848,-4.994,-5.0055,-5.0131,-5.0241,-5.0429,-5.0455,-5.0512,-5.053,-5.0544,-5.0562,-5.0668,-5.0695,-5.0408,-5.0408,-5.0407,0,0,-4.9167,-4.9243,-4.9312,-4.947,-4.954,-4.9657,-4.9597,-4.9723,-4.9811,-4.9799,-4.996,-5.0013,-5.0118,-5.0296,-5.0378,-5.0346,-5.0647,-5.056,-5.0571,-5.0582,-5.0684,-5.0711,-5.0735,-5.0416,-5.0415,-5.0413,0,0,-4.9342,-4.941,-4.9543,-4.9615,-4.9721,-4.9761,-4.9793,-4.9898,-4.9933,-5.0095,-5.0089,-5.0195,-5.0392,-5.0468,-5.0532,-5.0738,-5.0729,-5.0773,-5.0867,-5.097,-5.0993,-5.1013,-5.1088,-5.1115,-5.0791,-5.0791,-5.0791,0,-4.9408,-4.9583,-4.9612,-4.9741,-4.9811,-4.9805,-4.9941,-5.0009,-5.0147,-5.0197,-5.0158,-5.0408,-5.0478,-5.0674,-5.0725,-5.0776,-5.0816,-5.0761,-5.0987,-5.1007,-5.1027,-5.1099,-5.1127,-5.0796,-5.0795,-5.0795,-5.0794,0,-4.9659,-4.9781,-4.9876,-5.0009,-5.009,-5.0222,-5.0273,-5.0352,-5.0362,-5.0406,-5.0573,-5.0656,-5.0785,-5.0833,-5.0844,-5.1032,-5.1009,-5.0978,-5.0909,-5.1058,-5.1127,-5.1155,-5.0803,-5.0801,-5.0799,-5.0798,0,0,-4.9867,-5.0015,-5.005,-5.0111,-5.0228,-5.0324,-5.0456,-5.0581,-5.065,-5.0745,-5.0858,-5.1026,-5.0999,-5.1072,-5.1092,-5.1182,-5.1342,-5.114,-5.1143,-5.1177,-5.1558,-5.1581,-5.1613,-5.1336,-5.1341,-5.1346,-5.155,0,-5.0056,-5.0289,-5.032,-5.0527,-5.0641,-5.0637,-5.0753,-5.0838,-5.0884,-5.0989,-5.1039,-5.1159,-5.1113,-5.1157,-5.1246,-5.1304,-5.1419,-5.1289,-5.1444,-5.1449,-5.1419,-5.1649,-5.1674,-5.1862,-5.1576,-5.1581,-5.1584,0,-5.0307,-5.041,-5.0628,-5.0731,-5.078,-5.0883,-5.1002,-5.1101,-5.1199,-5.1226,-5.1309,-5.1318,-5.1456,-5.138,-5.1573,-5.1484,-5.1549,-5.1587,-5.1596,-5.1613,-5.1527,-5.1674,-5.1923,-5.1952,-5.1627,-5.1623,-5.162,0,-5.044,-5.0632,-5.0788,-5.084,-5.0964,-5.1037,-5.1092,-5.1185,-5.1259,-5.1363,-5.1412,-5.1531,-5.1597,-5.1689,-5.1731,-5.1671,-5.1922,-5.1849,-5.1951,-5.195,-5.2005,-5.2001,-5.227,-5.2043,-5.2043,-5.2042,-5.2042,0,-5.0648,-5.0783,-5.0849,-5.0945,-5.1096,-5.1131,-5.128,-5.1333,-5.1416,-5.1524,-5.1528,-5.1629,-5.1677,-5.1786,-5.1819,-5.1976,-5.2005,-5.2032,-5.204,-5.2033,-5.203,-5.2077,-5.2066,-5.205,-5.2048,-5.2047,-5.2046,0,-5.0822,-5.0872,-5.1042,-5.1146,-5.1175,-5.1282,-5.1372,-5.1466,-5.151,-5.1647,-5.1681,-5.1752,-5.1881,-5.1931,-5.2089,-5.2112,-5.2292,-5.2289,-5.2259,-5.2262,-5.2361,-5.2352,-5.2672,-5.2717,-5.2458,-5.2461,-5.2463,0,-5.0953,-5.1056,-5.1171,-5.1243,-5.1301,-5.1417,-5.1492,-5.1531,-5.161,-5.173,-5.1811,-5.1939,-5.2044,-5.2251,-5.2317,-5.2439,-5.2439,-5.2543,-5.2458,-5.2448,-5.2444,-5.2438,-5.245,-5.2559,-5.2562,-5.2564,-5.2566,0,-5.1181,-5.12,-5.1308,-5.1427,-5.1516,-5.1611,-5.1704,-5.1763,-5.1816,-5.1905,-5.2036,-5.2118,-5.2279,-5.2408,-5.2532,-5.2591,-5.2589,-5.2592,-5.2622,-5.2617,-5.2597,-5.2612,-5.2305,-5.2585,-5.2583,-5.2581,-5.258,-5.258,-5.1339,-5.1431,-5.1527,-5.1648,-5.1721,-5.1808,-5.1902,-5.1959,-5.2069,-5.2202,-5.2219,-5.2361,-5.2458,-5.2626,-5.269,-5.2803,-5.2776,-5.2819,-5.283,-5.2841,-5.2849,-5.2577,-5.2825,-5.2825,-5.2824,-5.2824,-5.2824,0,-5.1569,-5.163,-5.1741,-5.187,-5.1966,-5.1953,-5.2055,-5.2137,-5.2261,-5.2352,-5.2455,-5.2608,-5.2733,-5.2809,-5.2935,-5.3011,-5.3013,-5.3043,-5.3039,-5.3053,-5.2865,-5.2827,-5.3039,-5.3039,-5.3039,-5.3039,-5.3039,-5.3039,-5.17,-5.1856,-5.1887,-5.2081,-5.2142,-5.228,-5.234,-5.242,-5.2493,-5.2663,-5.2766,-5.2815,-5.2901,-5.3033,-5.3148,-5.3168,-5.3215,-5.3248,-5.3265,-5.3088,-5.3066,-5.3045,-5.301,-5.3257,-5.3257,-5.3445,-5.3447,-5.3448]}]]